User: anonymous   Login
Location: Saint-Usage
(47.1052°N, 5.2587°E)
Time: 09:59:44
(UTC+01:00)
Language:

AIST 2D - Orbit

View from above orbital plane
View from above orbital plane
View from above satellite
View from above satellite

Ground track
Ground track

The orbit data is extracted from the following two-line orbital elements,

1 41465U 16026B   21334.89065148  .00004171  00000-0  11545-3 0  9991
2 41465  97.0815 213.1588 0011780 125.8959 301.3075 15.37459464312997
Epoch (UTC): 30 November 2021 21:22:32
Eccentricity: 0.0011780
inclination: 97.0815°
perigee height: 445 km
apogee height: 461 km
right ascension of ascending node: 213.1588°
argument of perigee: 125.8959°
revolutions per day: 15.37459464
mean anomaly at epoch: 301.3075°
orbit number at epoch: 31299

The dashed part of the orbit path shows where the satellite is in the earth's shadow,  

DLR